Location: Presov
(49.0000°N, 21.2500°E)
Time: 12:48:02
(UTC+02:00)

SR - All Passes

Search period start: 18 April 2021 00:00
Search period end: 28 April 2021 00:00
Orbit: 573 x 882 km, 66.7° (Epoch: 17 April)

Date Brightness Start Highest point End Pass type
(mag) Time Alt. Az. Time Alt. Az. Time Alt. Az.
18 Apr - 06:56:15 10° SE 06:58:47 13° E 07:01:22 10° ENE daylight
18 Apr - 08:34:12 10° SSW 08:39:49 70° ESE 08:45:44 10° NE daylight
18 Apr - 10:17:18 10° W 10:22:27 32° NW 10:27:46 10° NNE daylight
18 Apr - 12:03:06 10° NW 12:06:29 15° NNW 12:09:53 10° NNE daylight
18 Apr - 13:47:41 10° NNW 13:51:06 15° NNE 13:54:28 10° NE daylight
18 Apr - 15:29:47 10° NNW 15:35:05 33° NE 15:40:10 10° E daylight
18 Apr - 17:11:52 10° NW 17:17:41 67° WSW 17:23:08 10° SSE daylight
18 Apr - 18:56:37 10° W 18:58:38 12° W 19:00:37 10° WSW daylight
19 Apr - 07:44:58 10° S 07:50:12 40° ESE 07:55:41 10° NE daylight
19 Apr - 09:26:45 10° WSW 09:32:17 47° NW 09:38:03 10° NNE daylight
19 Apr - 11:11:53 10° WNW 11:15:53 18° NNW 11:19:57 10° NNE daylight
19 Apr - 12:57:26 10° NNW 13:00:26 14° N 13:03:24 10° NE daylight
19 Apr - 14:40:04 10° NNW 14:44:46 23° NNE 14:49:18 10° E daylight
19 Apr - 16:21:59 10° NNW 16:27:54 75° NE 16:33:27 10° SE daylight
19 Apr - 18:05:02 10° WNW 18:09:25 23° WSW 18:13:34 10° SSW daylight
20 Apr - 06:56:26 10° SSE 07:00:46 23° ESE 07:05:16 10° ENE daylight
20 Apr - 08:36:36 10° SW 08:42:18 75° NW 08:48:17 10° NE daylight
20 Apr - 10:20:46 10° W 10:25:26 24° NNW 10:30:11 10° NNE daylight
20 Apr - 12:06:44 10° NW 12:09:45 14° N 12:12:44 10° NNE daylight
20 Apr - 13:50:17 10° NNW 13:54:17 18° NNE 13:58:12 10° ENE daylight
20 Apr - 15:32:13 10° NNW 15:37:54 47° NE 15:43:17 10° ESE daylight
20 Apr - 17:14:36 10° NW 17:20:00 40° WSW 17:25:03 10° S daylight
21 Apr - 06:09:18 10° ESE 06:11:31 12° E 06:13:47 10° ENE daylight
21 Apr - 07:46:54 10° SSW 07:52:31 67° ESE 07:58:25 10° NE daylight
21 Apr - 09:29:53 10° WSW 09:35:06 33° NW 09:40:28 10° NNE daylight
21 Apr - 11:15:38 10° NW 11:19:05 16° NNW 11:22:32 10° NNE daylight
21 Apr - 13:00:21 10° NNW 13:03:42 15° NNE 13:07:00 10° NE daylight
21 Apr - 14:42:30 10° NNW 14:47:44 31° NE 14:52:44 10° E daylight
21 Apr - 16:24:33 10° NW 16:30:23 70° WSW 16:35:50 10° SSE daylight
21 Apr - 18:09:01 10° WNW 18:11:23 13° W 18:13:41 10° SW daylight
22 Apr - 06:57:43 10° S 07:02:54 38° ESE 07:08:21 10° NE daylight
22 Apr - 08:39:22 10° WSW 08:44:57 50° NW 08:50:45 10° NNE daylight
22 Apr - 10:24:25 10° WNW 10:28:30 19° NNW 10:32:38 10° NNE daylight
22 Apr - 12:10:03 10° NNW 12:13:02 14° N 12:15:58 10° NNE daylight
22 Apr - 13:52:46 10° NNW 13:57:23 23° NNE 14:01:51 10° E daylight
22 Apr - 15:34:41 10° NNW 15:40:34 71° NE 15:46:05 10° SE daylight
22 Apr - 17:17:39 10° WNW 17:22:08 24° WSW 17:26:23 10° SSW daylight
23 Apr - 06:09:16 10° SSE 06:13:30 22° ESE 06:17:52 10° ENE daylight
23 Apr - 07:49:16 10° SW 07:54:59 79° NW 08:00:59 10° NE daylight
23 Apr - 09:33:18 10° W 09:38:03 25° NNW 09:42:53 10° NNE daylight
23 Apr - 11:19:18 10° NW 11:22:21 14° N 11:25:22 10° NNE daylight
23 Apr - 13:02:59 10° NNW 13:06:54 18° NNE 13:10:44 10° ENE daylight
23 Apr - 14:44:55 10° NNW 14:50:34 45° NE 14:55:53 10° ESE daylight
23 Apr - 16:27:16 10° NW 16:32:42 42° WSW 16:37:47 10° S daylight
24 Apr - 05:22:27 10° ESE 05:24:16 12° E 05:26:08 10° E daylight
24 Apr - 06:59:36 10° SSW 07:05:12 63° ESE 07:11:05 10° NE daylight
24 Apr - 08:42:29 10° WSW 08:47:45 35° NW 08:53:10 10° NNE daylight
24 Apr - 10:28:10 10° NW 10:31:41 16° NNW 10:35:12 10° NNE daylight
24 Apr - 12:13:01 10° NNW 12:16:18 15° N 12:19:32 10° NE daylight
24 Apr - 13:55:12 10° NNW 14:00:22 30° NE 14:05:18 10° E daylight
24 Apr - 15:37:14 10° NW 15:43:05 74° WSW 15:48:31 10° SSE daylight
24 Apr - 17:21:28 10° WNW 17:24:07 14° WSW 17:26:42 10° SW daylight
25 Apr - 06:10:29 10° S 06:15:37 36° ESE 06:20:59 10° NE daylight
25 Apr - 07:51:59 10° WSW 07:57:37 52° NW 08:03:27 10° NNE daylight
25 Apr - 09:36:57 10° WNW 09:41:07 19° NNW 09:45:19 10° NNE daylight
25 Apr - 11:22:41 10° NNW 11:25:37 14° N 11:28:32 10° NNE daylight
25 Apr - 13:05:28 10° NNW 13:10:01 22° NNE 13:14:24 10° ENE daylight
25 Apr - 14:47:23 10° NNW 14:53:15 68° NE 14:58:43 10° SE daylight
25 Apr - 16:30:15 10° NW 16:34:51 25° WSW 16:39:13 10° SSW daylight
26 Apr - 05:22:08 10° SSE 05:26:14 21° ESE 05:30:28 10° ENE daylight
26 Apr - 07:01:54 10° SW 07:07:40 83° NW 07:13:40 10° NE daylight
26 Apr - 08:45:52 10° W 08:50:41 25° NNW 08:55:35 10° NNE daylight
26 Apr - 10:31:51 10° NW 10:34:56 14° N 10:37:59 10° NNE daylight
26 Apr - 12:15:40 10° NNW 12:19:30 17° NNE 12:23:15 10° ENE daylight
26 Apr - 13:57:38 10° NNW 14:03:13 43° NE 14:08:29 10° ESE daylight
26 Apr - 15:39:56 10° NW 15:45:24 44° WSW 15:50:31 10° S daylight
27 Apr - 04:35:42 10° ESE 04:37:01 11° E 04:38:20 10° E visible
27 Apr - 06:12:19 10° SSW 06:17:54 60° ESE 06:23:45 10° NE daylight
27 Apr - 07:55:04 10° WSW 08:00:24 36° NW 08:05:52 10° NNE daylight
27 Apr - 09:40:43 10° NW 09:44:17 16° NNW 09:47:52 10° NNE daylight
27 Apr - 11:25:40 10° NNW 11:28:53 15° N 11:32:04 10° NE daylight
27 Apr - 13:07:54 10° NNW 13:13:00 29° NE 13:17:52 10° E daylight
27 Apr - 14:49:55 10° NW 14:55:46 78° WSW 15:01:11 10° SSE daylight
27 Apr - 16:33:57 10° WNW 16:36:51 14° WSW 16:39:40 10° SW daylight
